TimeCST,TemperatureF,Dew PointF,Humidity,Sea Level PressureIn,VisibilityMPH,Wind Direction,Wind SpeedMPH,Gust SpeedMPH,PrecipitationIn,Events,Conditions,WindDirDegrees,DateUTC
12:52 AM,53.1,50.0,89,29.86,8.0,ESE,4.6,-,0.10,Rain,Light Rain,110,2011-11-15 06:52:00
1:52 AM,52.0,48.0,86,29.85,8.0,SSE,9.2,-,0.14,Rain,Light Rain,150,2011-11-15 07:52:00
3:52 AM,52.0,50.0,93,29.85,8.0,South,4.6,-,0.03,Rain,Light Rain,180,2011-11-15 09:52:00
4:52 AM,52.0,50.0,93,29.82,10.0,South,10.4,-,0.03,,Overcast,170,2011-11-15 10:52:00
5:37 AM,51.8,50.0,94,29.84,10.0,Variable,3.5,-,N/A,,Overcast,0,2011-11-15 11:37:00
5:52 AM,52.0,48.9,89,29.80,10.0,South,12.7,-,N/A,,Overcast,170,2011-11-15 11:52:00
6:59 AM,53.6,50.0,88,29.82,10.0,SSE,3.5,-,N/A,,Mostly Cloudy,150,2011-11-15 12:59:00
7:52 AM,54.0,51.1,90,29.83,10.0,South,5.8,-,N/A,,Overcast,170,2011-11-15 13:52:00
8:23 AM,55.4,51.8,88,29.83,10.0,South,6.9,-,N/A,,Overcast,170,2011-11-15 14:23:00
8:52 AM,55.9,53.1,90,29.83,10.0,South,5.8,-,N/A,,Overcast,170,2011-11-15 14:52:00
9:12 AM,55.4,53.6,94,29.85,10.0,South,5.8,-,N/A,,Overcast,190,2011-11-15 15:12:00
9:52 AM,57.0,53.1,87,29.86,10.0,South,8.1,-,N/A,,Overcast,190,2011-11-15 15:52:00
10:52 AM,57.9,53.1,84,29.83,10.0,South,11.5,-,N/A,,Overcast,180,2011-11-15 16:52:00
11:07 AM,57.2,53.6,88,29.84,10.0,South,6.9,-,N/A,,Overcast,190,2011-11-15 17:07:00
11:45 AM,57.2,53.6,88,29.82,10.0,South,4.6,-,N/A,,Overcast,190,2011-11-15 17:45:00
11:52 AM,57.9,54.0,87,29.82,10.0,South,8.1,-,N/A,,Overcast,190,2011-11-15 17:52:00
12:10 PM,59.0,53.6,82,29.81,10.0,South,8.1,-,N/A,,Overcast,180,2011-11-15 18:10:00
12:52 PM,59.0,54.0,83,29.80,10.0,South,4.6,-,N/A,,Overcast,180,2011-11-15 18:52:00
1:18 PM,59.0,53.6,82,29.80,10.0,South,6.9,-,N/A,,Overcast,180,2011-11-15 19:18:00
1:52 PM,59.0,54.0,83,29.80,10.0,South,6.9,-,N/A,,Overcast,190,2011-11-15 19:52:00
2:52 PM,59.0,55.0,87,29.80,10.0,SSW,5.8,-,N/A,,Overcast,210,2011-11-15 20:52:00
3:52 PM,57.9,55.9,93,29.81,7.0,SSW,4.6,-,N/A,,Overcast,200,2011-11-15 21:52:00
4:52 PM,57.9,55.9,93,29.82,5.0,South,3.5,-,0.01,,Overcast,170,2011-11-15 22:52:00
5:33 PM,57.2,55.4,94,29.82,6.0,SSE,3.5,-,N/A,,Overcast,160,2011-11-15 23:33:00
5:52 PM,57.9,55.9,93,29.83,7.0,South,4.6,-,N/A,,Overcast,180,2011-11-15 23:52:00
6:45 PM,57.2,55.4,94,29.82,10.0,South,3.5,-,N/A,,Partly Cloudy,170,2011-11-16 00:45:00
6:52 PM,57.0,54.0,89,29.83,10.0,South,3.5,-,N/A,,Partly Cloudy,170,2011-11-16 00:52:00
7:52 PM,55.9,54.0,93,29.84,8.0,Calm,Calm,-,N/A,,Mostly Cloudy,0,2011-11-16 01:52:00
8:48 PM,57.2,55.4,94,29.85,10.0,Calm,Calm,-,N/A,,Overcast,0,2011-11-16 02:48:00
8:52 PM,57.0,55.0,93,29.85,10.0,SSE,4.6,-,N/A,,Overcast,160,2011-11-16 02:52:00
9:16 PM,57.2,55.4,94,29.83,10.0,South,3.5,-,N/A,,Overcast,170,2011-11-16 03:16:00
9:52 PM,57.0,55.0,93,29.83,10.0,South,3.5,-,N/A,,Overcast,170,2011-11-16 03:52:00
10:52 PM,55.9,54.0,93,29.84,6.0,Calm,Calm,-,0.00,Rain,Light Rain,0,2011-11-16 04:52:00
11:52 PM,55.9,54.0,93,29.83,5.0,Calm,Calm,-,0.02,Rain,Light Rain,0,2011-11-16 05:52:00